Location: Brompton
(51.4000°N, 0.5333°E)
Time: 04:04:51
(UTC+00:00)

USA 215 - Pass Details

Date: 04 October 2021
Orbit: 1093 x 1114 km, 123.0° (Epoch: 14 October)

Event Time Altitude Azimuth Distance (km) Brightness Sun altitude
Exits shadow 17:51:21 - 81° (E) 3,429 5.2 -4.4°
Reaches altitude 10° 17:52:36 10° 79° (E) 2,958 4.9 -4.6°
Maximum altitude 17:58:56 56° 4° (N) 1,302 3.7 -5.6°
Drops below altitude 10° 18:05:18 10° 288° (WNW) 2,973 7.0 -6.6°
Sets 18:07:50 0° 285° (WNW) 3,934 8.1 -7.0°
